This is the latest recevied weather packets stored in our database for station/object VY2CRA-4. If no packets are shown the sender has not sent any weather packets the latest 1 day(s).
| Time | Temp. | Humidity | Pressure | Rain* | Wind** | Luminosity | Snow |
|---|---|---|---|---|---|---|---|
| 1778026054 | 23.33° C | 21% | 1005.6 hPa | 0 mm | 0 m/s | - | - |
| 1778024852 | 23.89° C | 19% | 1005.3 hPa | 0 mm | 0 m/s | - | - |
| 1778023653 | 24.44° C | 17% | 1004.8 hPa | 0 mm | 0 m/s | - | - |
| 1778022451 | 25° C | 15% | 1004.8 hPa | 0 mm | 0 m/s | - | - |
| 1778021251 | 26.11° C | 13% | 1004.3 hPa | 0 mm | 0 m/s | - | - |
| 1778020049 | 26.67° C | 11% | 1004.2 hPa | 0 mm | 0 m/s | - | - |
| 1778018848 | 27.78° C | 8% | 1004.1 hPa | 0 mm | 0 m/s | - | - |
| 1778017647 | 28.89° C | 5% | 1004.2 hPa | 0 mm | 0 m/s | - | - |
| 1778016446 | 29.44° C | 4% | 1004.1 hPa | 0 mm | 0 m/s | - | - |
| 1778015245 | 30° C | 3% | 1004 hPa | 0 mm | 0 m/s | - | - |
| 1778014044 | 30° C | 4% | 1004 hPa | 0 mm | 0 m/s | - | - |
| 1778012843 | 30° C | 4% | 1004.1 hPa | 0 mm | 0 m/s | - | - |
| 1778011642 | 30° C | 4% | 1004.3 hPa | 0 mm | 0 m/s | - | - |
| 1778010441 | 30° C | 4% | 1004.4 hPa | 0 mm | 0 m/s | - | - |
| 1778009241 | 30° C | 3% | 1004.5 hPa | 0 mm | 0 m/s | - | - |
| 1778006838 | 30° C | 4% | 1004.7 hPa | 0 mm | 0 m/s | - | - |
| 1778005638 | 30° C | 4% | 1004.8 hPa | 0 mm | 0 m/s | - | - |
| 1778004437 | 29.44° C | 5% | 1004.9 hPa | 0 mm | 0 m/s | - | - |
| 1778003236 | 29.44° C | 5% | 1005 hPa | 0 mm | 0 m/s | - | - |
| 1778002035 | 29.44° C | 5% | 1005.2 hPa | 0 mm | 0 m/s | - | - |
| 1778000834 | 28.89° C | 6% | 1005.4 hPa | 0 mm | 0 m/s | - | - |
| 1777999633 | 28.89° C | 7% | 1005.5 hPa | 0 mm | 0 m/s | - | - |
| 1777998432 | 29.44° C | 5% | 1005.5 hPa | 0 mm | 0 m/s | - | - |
| 1777996032 | 30.56° C | 3% | 1005.6 hPa | 0 mm | 0 m/s | - | - |
| 1777994831 | 31.67° C | 1% | 1005.7 hPa | 0 mm | 0 m/s | - | - |
* Rain since midnight (hover to see other rain measurements)
** Current wind speed in m/s (hover to see current wind gust speed)